Content
SEND FEEDBACK

Daily
Averages
Monthly
Summary
United States of America

STATEN ISLAND, NEW YORK


Home > North America > United States > New York
Elevation: 152 feet     Latitude: 40 35N     Longitude: 074 09W

WEATHER
 
SELECT A DAY
Number of Records: 189,619;   Date Range: 1/1/95 - 7/27/14
 
SHARE

PRINT THIS DATA

[ ← Previous Day ]
WEATHER ALMANAC - APRIL 21, 2013
[ Next Day → ]
[ °C ]   °F
Weather ElementAverageHighLow
Temperature45.7 °F53.1 °F (2:51 pm)37.9 °F (4:51 am)
Dewpoint22.2 °F32 °F (10:51 pm)17.1 °F (1:51 am)
Humidity40.5 %58 % (11:51 pm)25 % (5:51 pm)
Barometer30.53 in30.62 in (11:51 pm)30.37 in (1:51 am)
Wind Speed8.9 mph21.9 mph (1:51 am)
Wind Gust28.8 mph (1:51 am)
Weather ElementAverage
Visibility10 mi
Wind DirectionSSE (150 °)

Weather ElementTotal
Precipitation---
Heating Degree Days19.5 (Base 65)
Averaged from 23 records on April 21, 2013
WEATHER CONDITIONS BREAKOUT
WIND DIRECTION BREAKOUT
WEATHER BY HOUR - APRIL 21, 2013
[ °C ]   °F
Local TimeTemperatureDewpointHumidityBarometerVisibilityWind DirectionWind SpeedGust SpeedPrecipitationEventsConditions
1:51 AM42.1 °F17.1 °F37 %30.37 in10.0 miNNW (330°)21.9 mph28.8 mphClear
2:51 AM39.9 °F17.1 °F40 %30.39 in10.0 miNNW (330°)16.1 mphClear
3:51 AM39.0 °F18.0 °F43 %30.41 in10.0 miNNW (340°)17.3 mph20.7 mphClear
4:51 AM37.9 °F19.9 °F48 %30.43 in10.0 miNNW (330°)13.8 mphClear
5:51 AM37.9 °F19.9 °F48 %30.46 in10.0 miNNW (330°)11.5 mphClear
6:51 AM37.9 °F21.0 °F51 %30.50 in10.0 miNNW (330°)12.7 mphPartly Cloudy
7:51 AM39.9 °F21.0 °F47 %30.53 in10.0 miNorth (360°)12.7 mphScattered Clouds
8:51 AM42.1 °F21.0 °F43 %30.55 in10.0 miNorth (10°)13.8 mphScattered Clouds
9:51 AM43.0 °F21.0 °F42 %30.57 in10.0 miNorth (10°)10.4 mph16.1 mphScattered Clouds
10:51 AM45.0 °F21.0 °F39 %30.58 in10.0 miNNE (20°)8.1 mphMostly Cloudy
11:51 AM48.0 °F21.0 °F34 %30.58 in10.0 miVariable3.5 mphMostly Cloudy
12:51 PM48.0 °F19.9 °F33 %30.57 in10.0 miSE (130°)3.5 mphMostly Cloudy
1:51 PM51.1 °F21.0 °F31 %30.56 in10.0 miNorth (350°)4.6 mph18.4 mphMostly Cloudy
2:51 PM53.1 °F21.9 °F30 %30.55 in10.0 miNE (40°)10.4 mphMostly Cloudy
3:51 PM53.1 °F21.9 °F30 %30.54 in10.0 miNNE (20°)9.2 mph17.3 mphScattered Clouds
4:51 PM53.1 °F19.0 °F26 %30.54 in10.0 miNE (40°)6.9 mph16.1 mphMostly Cloudy
5:51 PM53.1 °F18.0 °F25 %30.55 in10.0 miNNE (30°)9.2 mphMostly Cloudy
6:51 PM50.0 °F25.0 °F38 %30.56 in10.0 miSE (140°)8.1 mphMostly Cloudy
7:51 PM48.9 °F27.0 °F43 %30.58 in10.0 miSSE (160°)6.9 mphMostly Cloudy
8:51 PM48.0 °F28.0 °F46 %30.61 in10.0 miSSE (150°)4.6 mphMostly Cloudy
9:51 PM48.0 °F27.0 °F44 %30.61 in10.0 miCalmMostly Cloudy
10:51 PM46.9 °F32.0 °F56 %30.61 in10.0 miCalmMostly Cloudy
11:51 PM45.0 °F30.9 °F58 %30.62 in10.0 miCalmMostly Cloudy
Hourly data recorded from KEWR, located miles away from Staten Island, New York







STORIES FROM OUR PARTNERS